Showing default

GAOFEN 10R, 44622

Orbit data source: Space-Track

GAOFEN 10R, 44622 is a payload satellite owned by PLA SSF (CN) in SSO that was launched on Fri, 04 Oct 2019 UTC via a CHANG ZHENG 4C launch vehicle from the Taiyaun Space Center, China (TSC). Payload-class satellites include a variety of spacecraft equipped with specific instruments for various scientific and technological missions. These include communications satellites like Starlink; space stations such as the ISS; scientific satellites like the Hubble; Earth observation satellites from companies like Planet Labs, Umbra, and HawkEye 360; GPS; miniature CubeSats for education and research; and military/defense satellites.

Loading next visibility...
Identifier
44622, 2019-066A
Orbit
SSO
Country
Flag of CNCN / PRC
Related business
Manufacturer
SAST
Mission
Operational Defense Imaging
Bus & Motor
CS-L3000B?, Unknown motor
Mass
~3,000 kg wet, ~3,000 kg dry
Launch date (UTC)
2019-10-04 (7 years ago)
Launch vehicle
CHANG ZHENG 4C
Launch site
Taiyaun Space Center, China (TSC)
Object type
Payload
Rocket body
Debris
Shape & HBR
Box + 3 Pan, Unknown HBR
Radar Cross Section
10.846 m², Large (>1 m²)

Expand to show TLE details & history
Last TLE update: 22 hours ago

TLE from 22 hours ago
0 GAOFEN 10R
1 44622U 19066A   26172.53928659  .00000798  00000-0  10471-3 0  9995
2 44622  98.0503 126.1503 0006898 115.9819 244.2105 14.83068474363025
Epoch: 2026-06-21T12:56Z
TLE epoch observation values (Epoch: 2026-06-21T12:56:34.361Z)
Latitude
-0.00006°
Longitude
22.26903°
Altitude
624.78 km
Speed
7.545 km/s
True Right ascension
08h 24m 36s
True Declination
0° 00' 00"
Sunlit
Object was in daylight at epoch
Visualization orbit readout
Latitude
Unknown
Longitude
Unknown
Altitude
Unknown
Speed
Unknown
Apparent Right ascension
Unknown
Apparent Declination
Unknown
Sunlit
N/A
Visualization observer readout
Local Sidereal Time
21:37:14
Azimuth
Unknown
Elevation
Unknown
Doppler factor
Unknown
Orbital elements
Apogee altitude
621.524 km
Perigee altitude
611.874 km
Semi-major axis
6,994.836 km
Eccentricity
0.00069
Inclination
98.0503°
RAAN
126.1503°
Arg. of periapsis
115.9819°
True anomaly
244.13935°
Mean anomaly
244.2105°
Eccentric anomaly
244.17492°
Mean motion
3.71003 °/min
Orbital period
97.03 mins
BSTAR
0.00010471
Loading maneuver chart data...
Computing Atmospheric mass density...
Loading historical data...
Loading historical data...
Loading historical data...
Loading historical data...
Loading historical data...
Loading historical data...
Loading historical data...
Other satellites on launch #66 in the year 2019 (2019-10-04 UTC)

Documentation

Showing up to 5 results
|